#timestamp,LO_Frequency,Hit,StdDev 
1642258815.3,286047000.7,N
1642258835.1,286046998.6,N
1642258855.8,286046999.2,N
1642258875.7,286046999.0,N
1642258895.5,286046998.4,N
1642258915.4,286046998.1,N
1642258935.2,286046998.7,N
1642258955.0,286046999.2,N
1642258955.9,286046999.2,N
1642258975.8,286046999.4,N
1642258995.6,286046998.6,N
1642259015.5,286047000.3,N
1642259035.3,286046999.9,N
1642259055.1,286046998.2,N
1642259075.9,286046998.2,N
1642259095.7,286046998.1,N
1642259115.5,286047000.7,N
1642259135.4,286047000.0,N
1642259155.2,286047002.8,N
1642259175.1,286047004.4,Y
1642259176.0,286047004.4,P
1642259195.8,286047001.3,N
1642259215.6,286047004.0,N
1642259235.5,286047001.3,N
1642259255.3,286047001.3,N
1642259275.1,286047004.2,N
1642259295.9,286046999.8,N
1642259315.7,286047003.9,N
1642259335.6,286047004.1,N
1642259355.4,286047004.0,N
1642259375.2,286047001.5,N
1642259395.1,286047002.0,N
1642259396.0,286047002.0,N
1642259415.8,286047001.8,N
1642259435.6,286047003.2,N
1642259455.5,286047002.1,N
1642259475.3,286047000.5,N
1642259495.1,286046998.1,N
1642259515.9,286046998.5,N
1642259535.7,286046998.5,N
1642259555.6,286046998.2,N
1642259575.4,286046999.0,N
1642259595.2,286046998.4,N
1642259615.1,286047000.0,N
1642259616.0,286047000.0,N
1642259635.8,286047002.8,N
1642259655.6,286047002.3,N
1642259675.5,286047002.3,N
1642259695.3,286047000.9,N
1642259715.2,286047000.0,N
1642259735.0,286047002.2,N
1642259735.9,286047002.2,N
1642259755.8,286047000.4,N
1642259775.6,286047000.6,N
1642259795.4,286046999.9,N
1642259815.3,286046999.7,N
1642259835.1,286047002.2,N
1642259855.8,286047002.0,N
1642259875.7,286047001.9,N
1642259895.5,286047002.0,N
1642259915.4,286047000.6,N
1642259935.2,286046998.1,N
1642259955.0,286047000.4,N
1642259955.9,286047000.4,N
1642259975.8,286047001.0,N
1642259995.6,286047001.2,N
1642260015.5,286046999.9,N
1642260035.3,286047000.2,N
1642260055.1,286047000.1,N
1642260075.9,286047004.2,Y
1642260095.7,286047001.7,P
1642260115.5,286047001.6,N
1642260135.4,286047002.4,P
1642260155.2,286047004.0,Y
1642260175.1,286047000.5,P
1642260176.0,286047000.5,N
1642260195.8,286047001.1,N
1642260215.6,286047001.1,N
1642260235.5,286047000.7,N
1642260255.3,286047001.2,Y
1642260275.2,286047000.6,P
1642260295.9,286047002.7,P
1642260315.7,286047000.9,N
1642260335.6,286046998.9,N
1642260355.4,286046999.5,N
1642260375.2,286046997.1,N
1642260395.1,286046999.5,N
1642260396.0,286046999.5,N
1642260415.8,286046999.2,N
1642260435.7,286046997.0,N
1642260455.5,286046997.2,N
1642260475.3,286046997.2,N
1642260495.2,286046999.6,N
1642260515.0,286046999.1,N
1642260515.9,286046999.1,N
1642260535.7,286046996.5,N
1642260555.6,286046996.9,N
1642260575.4,286046996.8,N
1642260595.3,286047000.8,N
1642260615.1,286046998.6,N
1642260635.8,286046998.3,N
1642260655.7,286047001.2,N
1642260675.5,286046998.1,N
1642260695.4,286047000.5,N
1642260715.2,286046998.5,N
1642260735.0,286046998.5,N
1642260735.9,286046998.5,N
1642260755.8,286047000.6,N
1642260775.6,286046996.9,N
1642260795.4,286046998.2,N
1642260815.3,286047001.1,N
1642260835.1,286047001.2,N
1642260855.9,286046998.7,N
1642260875.7,286046999.4,N
1642260895.5,286046999.3,N
1642260915.4,286046999.4,N
1642260935.2,286047000.2,N
1642260955.0,286047001.2,N
1642260955.9,286047001.2,N
1642260975.8,286046997.4,N
1642260995.6,286046996.6,N
1642261015.5,286046997.0,N
1642261035.3,286046998.1,N
1642261055.1,286046996.6,N
1642261075.9,286046999.4,N
1642261095.7,286046999.2,N
1642261115.5,286046999.4,N
1642261135.4,286046998.8,N
1642261155.2,286046999.6,N
1642261175.1,286046996.8,N
1642261176.0,286046996.8,N
1642261195.8,286046999.3,N
1642261215.6,286046998.5,N
1642261235.5,286046996.5,N
1642261255.3,286046999.1,N
1642261275.1,286047000.8,N
1642261295.9,286046998.2,N
1642261315.7,286047001.1,N
1642261335.6,286047000.9,N
1642261355.4,286047000.2,N
1642261375.2,286047002.7,N
1642261395.1,286047000.9,N
1642261396.0,286047000.9,N
1642261415.8,286047000.5,N
1642261435.7,286047001.0,N
1642261455.5,286046998.4,N
1642261475.3,286046998.4,N
1642261495.2,286046998.5,N
1642261515.0,286046998.6,N
1642261515.9,286046998.6,N
1642261535.8,286047001.2,N
1642261555.6,286046998.9,N
1642261575.4,286046996.8,N
1642261595.3,286046997.7,N
1642261615.1,286046995.2,Y
1642261635.9,286046997.9,P
1642261655.7,286046997.2,P
1642261675.5,286046997.7,N
1642261695.4,286046999.2,N
1642261715.2,286046999.0,N
1642261735.0,286046997.8,N
1642261735.9,286046997.8,N
1642261755.8,286046994.9,Y
1642261775.6,286046999.3,P
1642261795.5,286046998.8,N
1642261815.3,286046998.1,P
1642261835.1,286046999.3,N
1642261855.9,286047001.0,N
1642261875.7,286046999.7,N
1642261895.6,286046999.9,N
1642261915.4,286046999.8,N
1642261935.2,286047002.8,Y
1642261955.1,286047001.9,P
1642261956.0,286047001.9,N
1642261975.8,286047002.5,N
1642261995.7,286047002.1,N
1642262015.5,286047001.9,N
1642262035.3,286047004.4,Y
1642262055.2,286046999.7,P
1642262075.0,286047002.8,N
1642262075.9,286047002.8,N
1642262095.7,286047002.2,N
1642262115.6,286047001.4,N
1642262135.4,286047003.3,Y
1642262155.3,286046998.5,P
1642262175.1,286046998.1,N
1642262176.0,286046998.1,N
1642262195.8,286046999.0,N
1642262215.7,286046998.1,N
1642262235.5,286046998.2,N
1642262255.3,286046999.0,N
1642262275.2,286046999.4,N
1642262295.0,286046996.6,Y
1642262295.9,286046996.6,P
1642262315.8,286046998.2,N
1642262335.6,286047000.8,N
1642262355.4,286046998.1,N
1642262375.3,286047000.4,N
1642262395.1,286047000.4,N
